Temp
3 4 4 4 4 5 5 4 4 4 4 3 2 2 1 0 0 1 0 0 1 1 1 0 0 0 1 1 1 1 2 2 1 1 2 2 2 2 2 2 1 1 0 3
3 3 4 4 4 5 4 5 4 4 4 4 3 1 1 1 0 -0 0 0 0 1 1 1 1 1 1 1 1 1 1 1 1 0 1 1 1 2 2 2 1 1 2 3
3 3 3 3 4 4 4 4 4 4 4 3 3 3 2 1 1 0 0 0 1 0 0 1 1 1 1 1 1 1 1 1 2 2 2 2 1 2 2 0 -0 1 2 3
2 3 2 3 3 3 3 4 4 4 3 3 3 3 2 2 1 1 1 1 1 1 1 0 0 1 0 0 0 0 1 1 1 1 1 1 1 1 1 1 2 0 1 2
2 2 2 2 2 3 3 3 3 3 3 3 3 2 2 2 1 1 1 1 1 1 1 1 1 0 0 0 -0 -0 -0 -0 0 1 1 0 1 1 1 0 0 0 -0 1
1 1 2 2 2 2 3 3 2 2 3 3 3 3 2 2 1 1 1 0 0 1 0 0 0 0 0 0 0 0 -1 -1 -1 -1 -1 -1 -0 3 2 2 1 1 -0 -0
0 1 1 1 1 1 1 2 2 2 2 2 2 2 2 2 2 2 1 0 0 -0 -0 -0 -0 -0 -0 -0 -1 -1 -0 -1 -2 -2 -2 -1 1 1 1 1 1 1 1 1
-0 -0 0 0 1 1 1 1 1 2 2 2 2 2 2 2 2 2 2 1 1 -0 -1 -1 -1 -0 -1 -0 -1 -2 -2 -2 -2 -2 -3 0 1 1 0 0 1 1 1 1
-1 -1 -0 -0 -0 -0 0 0 0 1 1 1 1 1 1 1 1 1 1 1 0 -0 -1 -2 -2 -1 -0 -1 -1 -1 -2 -3 -4 -4 -3 -1 1 1 0 -0 -0 1 0 -0
-1 -1 -1 -0 -1 -1 -1 -1 -0 -0 0 0 0 1 1 1 1 1 0 0 -0 -1 -1 -2 -2 -2 -1 -1 -1 -1 -2 -4 -5 -5 -4 -1 -0 -0 -1 -1 -0 -0 -1 -2
-2 -2 -2 -2 -1 -1 -1 -1 -1 -1 -1 -1 -0 -0 0 0 0 -0 -1 -1 -1 -1 -2 -2 -2 -2 -2 -2 -1 -1 -1 -2 -3 -6 -6 -3 -1 -1 -1 -1 -1 -2 -2 -3
-5 -4 -3 -3 -2 -2 -2 -2 -2 -2 -2 -1 -1 -1 -1 -1 -1 -1 -1 -2 -2 -2 -2 -2 -2 -2 -2 -2 -2 -1 -2 -1 -1 -1 -1 -1 -1 -1 -1 -2 -2 -2 -3 -3
-5 -5 -4 -4 -3 -3 -3 -3 -3 -3 -2 -2 -2 -1 -2 -1 -1 -1 -2 -2 -2 -2 -3 -3 -3 -3 -3 -3 -2 -2 -2 -2 -3 -2 -1 -2 -2 -2 -3 -3 -4 -4 -4 -4
-5 -5 -5 -5 -5 -4 -4 -4 -4 -4 -4 -3 -2 -2 -2 -2 -2 -2 -2 -2 -3 -3 -4 -4 -4 -4 -4 -3 -3 -3 -3 -3 -3 -2 -2 -3 -3 -4 -4 -4 -4 -5 -5 -5
-5 -5 -5 -5 -6 -5 -5 -4 -4 -4 -5 -4 -3 -3 -3 -3 -3 -3 -3 -3 -3 -3 -4 -4 -4 -4 -4 -4 -4 -4 -3 -2 -3 -3 -4 -4 -4 -5 -5 -5 -5 -5 -6 -6
-6 -6 -6 -6 -6 -6 -5 -5 -5 -4 -5 -5 -4 -4 -3 -3 -3 -3 -3 -3 -3 -3 -4 -4 -4 -4 -5 -5 -5 -4 -3 -3 -3 -4 -4 -4 -5 -5 -6 -6 -6 -6 -6 -7
-5 -5 -5 -6 -6 -5 -6 -5 -5 -5 -5 -5 -6 -5 -4 -4 -4 -4 -4 -4 -4 -4 -5 -5 -5 -5 -6 -6 -5 -4 -5 -4 -4 -5 -5 -6 -6 -6 -7 -7 -7 -8 -8 -8
-5 -5 -5 -6 -6 -7 -6 -6 -6 -6 -6 -6 -6 -5 -5 -5 -4 -4 -4 -4 -5 -6 -6 -6 -5 -6 -7 -8 -4 -4 -4 -5 -5 -5 -5 -6 -7 -8 -8 -8 -8 -8 -9 -9
-8 -7 -7 -8 -7 -6 -6 -6 -6 -6 -6 -7 -6 -6 -6 -6 -6 -6 -6 -6 -6 -7 -7 -6 -7 -7 -7 -5 -5 -5 -6 -6 -7 -7 -6 -7 -7 -8 -8 -9 -9 -9 -10 -10
-8 -8 -8 -8 -8 -7 -7 -7 -7 -8 -8 -8 -7 -6 -7 -7 -7 -7 -7 -8 -8 -8 -8 -8 -8 -7 -6 -6 -7 -7 -7 -8 -8 -8 -8 -9 -9 -9 -9 -10 -10 -11 -11 -11
-9 -9 -9 -8 -8 -8 -8 -8 -9 -9 -9 -8 -8 -7 -8 -8 -8 -8 -9 -9 -9 -10 -9 -9 -10 -8 -6 -6 -7 -7 -8 -8 -9 -10 -10 -10 -10 -11 -11 -11 -12 -12 -12 -12
-11 -10 -10 -10 -11 -10 -10 -10 -9 -9 -9 -9 -7 -7 -8 -9 -10 -10 -10 -10 -10 -10 -11 -11 -10 -8 -7 -8 -8 -8 -9 -9 -10 -11 -11 -11 -11 -12 -12 -12 -12 -12 -11 -11
-11 -11 -11 -11 -11 -11 -11 -11 -11 -10 -9 -8 -9 -9 -10 -11 -11 -11 -11 -11 -11 -12 -12 -11 -9 -9 -9 -9 -9 -9 -9 -10 -11 -11 -12 -12 -12 -12 -12 -11 -11 -11 -11 -11
-13 -13 -12 -12 -11 -11 -11 -11 -10 -10 -10 -10 -10 -11 -11 -11 -12 -12 -12 -12 -12 -12 -12 -10 -10 -10 -10 -10 -10 -10 -10 -11 -11 -12 -12 -12 -12 -12 -12 -11 -11 -11 -11 -11
-14 -13 -13 -12 -12 -12 -12 -12 -11 -11 -11 -11 -11 -12 -12 -12 -12 -12 -12 -12 -12 -12 -11 -11 -11 -10 -10 -10 -10 -11 -11 -11 -11 -11 -11 -11 -11 -11 -11 -11 -11 -12 -12 -12
-14 -13 -13 -13 -12 -12 -12 -12 -12 -12 -12 -12 -13 -13 -13 -13 -12 -13 -12 -12 -12 -11 -10 -11 -11 -11 -11 -11 -11 -11 -11 -11 -11 -11 -11 -11 -11 -11 -11 -11 -12 -12 -12 -12
-15 -14 -13 -13 -13 -13 -12 -12 -12 -12 -12 -13 -13 -13 -13 -13 -13 -13 -12 -12 -11 -11 -11 -11 -11 -11 -11 -11 -11 -11 -11 -11 -11 -11 -11 -12 -12 -12 -12 -12 -12 -13 -13 -13
Height
3125 3124 3122 3120 3118 3116 3115 3112 3111 3108 3106 3107 3104 3103 3104 3103 3104 3105 3105 3105 3106 3107 3107 3107 3107 3107 3107 3108 3110 3110 3111 3111 3113 3114 3115 3116 3117 3119 3120 3121 3123 3122 3122 3119
3125 3121 3120 3119 3118 3115 3114 3112 3110 3109 3107 3106 3105 3105 3105 3106 3106 3105 3105 3105 3105 3106 3107 3109 3108 3108 3109 3108 3108 3109 3110 3111 3113 3115 3117 3115 3115 3116 3117 3119 3120 3119 3121 3116
3121 3121 3118 3117 3116 3114 3113 3113 3111 3109 3108 3106 3106 3106 3106 3106 3106 3106 3105 3105 3105 3106 3106 3107 3107 3107 3108 3108 3109 3109 3109 3110 3110 3111 3111 3111 3112 3112 3114 3115 3116 3114 3111 3112
3117 3117 3116 3115 3114 3114 3112 3111 3109 3108 3108 3107 3106 3105 3105 3105 3105 3105 3105 3105 3105 3106 3105 3106 3106 3106 3106 3107 3107 3108 3109 3108 3108 3108 3108 3108 3109 3110 3110 3109 3110 3109 3108 3107
3113 3114 3113 3112 3110 3110 3112 3110 3109 3108 3107 3106 3106 3106 3104 3103 3104 3105 3104 3104 3103 3103 3103 3105 3104 3104 3104 3104 3104 3105 3106 3107 3106 3105 3105 3104 3103 3103 3102 3102 3101 3099 3100 3098
3108 3108 3109 3108 3108 3108 3107 3107 3107 3106 3105 3104 3105 3104 3104 3104 3103 3103 3103 3102 3102 3101 3102 3101 3102 3103 3103 3102 3102 3102 3103 3104 3105 3103 3101 3100 3096 3091 3091 3091 3091 3093 3091 3093
3102 3102 3104 3104 3104 3103 3104 3103 3104 3104 3103 3102 3102 3101 3101 3101 3100 3101 3101 3101 3101 3102 3100 3100 3098 3097 3098 3099 3098 3098 3098 3099 3102 3101 3100 3098 3087 3085 3085 3085 3084 3084 3084 3084
3096 3097 3098 3098 3099 3099 3099 3099 3100 3099 3098 3099 3099 3099 3098 3098 3098 3097 3097 3097 3098 3097 3099 3097 3096 3094 3094 3091 3092 3093 3094 3096 3096 3097 3097 3089 3085 3083 3083 3082 3081 3080 3080 3080
3090 3091 3091 3092 3093 3093 3093 3093 3094 3094 3094 3095 3094 3095 3096 3095 3094 3094 3092 3091 3092 3093 3093 3096 3095 3091 3089 3089 3087 3087 3089 3091 3094 3092 3091 3086 3080 3080 3079 3079 3077 3076 3076 3076
3082 3084 3085 3087 3087 3087 3088 3088 3088 3088 3088 3089 3090 3090 3090 3091 3091 3091 3090 3088 3088 3088 3087 3088 3090 3090 3088 3086 3083 3082 3083 3084 3086 3088 3087 3079 3076 3076 3077 3079 3079 3074 3074 3074
3073 3074 3076 3078 3080 3080 3081 3082 3082 3083 3082 3082 3083 3083 3084 3084 3086 3086 3086 3086 3082 3082 3082 3082 3084 3084 3084 3081 3080 3080 3080 3079 3079 3080 3081 3076 3073 3074 3076 3074 3072 3072 3072 3072
3065 3067 3068 3070 3070 3072 3073 3075 3075 3075 3076 3076 3076 3076 3077 3079 3079 3080 3080 3080 3079 3079 3078 3077 3076 3077 3079 3080 3078 3074 3077 3076 3075 3076 3072 3070 3070 3070 3071 3070 3071 3069 3068 3067
3057 3059 3061 3062 3064 3064 3066 3067 3068 3068 3069 3069 3068 3070 3070 3071 3071 3072 3074 3075 3074 3074 3074 3074 3072 3070 3070 3071 3071 3070 3070 3071 3069 3070 3068 3067 3066 3066 3066 3066 3066 3066 3066 3064
3049 3050 3052 3054 3055 3057 3058 3059 3061 3062 3063 3061 3061 3062 3063 3063 3064 3064 3066 3068 3067 3068 3067 3067 3066 3065 3064 3062 3063 3063 3066 3064 3062 3060 3062 3061 3061 3060 3059 3059 3060 3060 3059 3058
3039 3042 3043 3045 3047 3048 3050 3051 3052 3054 3058 3054 3054 3054 3054 3054 3056 3057 3058 3060 3060 3061 3060 3058 3058 3058 3059 3055 3053 3050 3057 3057 3054 3052 3053 3053 3052 3052 3052 3051 3051 3051 3051 3050
3029 3031 3033 3036 3039 3039 3042 3041 3044 3047 3047 3049 3046 3044 3047 3048 3047 3049 3051 3051 3052 3052 3052 3050 3047 3049 3052 3047 3040 3043 3046 3048 3046 3044 3044 3044 3044 3044 3043 3042 3042 3042 3042 3041
3019 3022 3024 3026 3027 3032 3032 3034 3037 3036 3039 3039 3039 3035 3033 3036 3038 3039 3041 3043 3042 3043 3043 3040 3040 3041 3043 3036 3032 3039 3037 3039 3037 3035 3035 3035 3036 3035 3036 3035 3035 3034 3034 3034
3008 3011 3014 3016 3019 3022 3024 3024 3025 3027 3030 3030 3028 3025 3027 3028 3030 3031 3032 3033 3034 3032 3032 3030 3031 3031 3030 3022 3026 3029 3030 3029 3028 3027 3026 3026 3026 3027 3028 3028 3026 3025 3026 3025
2998 3001 3003 3008 3010 3011 3014 3014 3013 3015 3021 3017 3016 3017 3019 3018 3021 3023 3024 3024 3024 3024 3022 3024 3025 3020 3016 3017 3018 3020 3021 3021 3020 3019 3019 3019 3019 3020 3020 3020 3019 3019 3018 3017
2993 2995 2997 2997 2999 3001 3006 3006 3006 3005 3005 3007 3008 3009 3012 3015 3014 3014 3018 3016 3016 3013 3013 3014 3011 3005 3010 3010 3012 3012 3012 3011 3011 3010 3011 3012 3012 3012 3012 3013 3013 3014 3013 3012
2986 2986 2990 2989 2990 2995 2996 2999 2999 2998 2997 2996 2997 3001 3003 3005 3008 3008 3010 3007 3008 3007 3006 3008 3001 2996 3004 3002 3003 3004 3004 3003 3003 3003 3004 3005 3006 3006 3007 3007 3008 3008 3008 3007
2979 2982 2983 2984 2987 2987 2989 2988 2989 2989 2991 2990 2992 2993 2995 2998 3001 3003 3004 3004 3003 3001 3001 3000 2992 2995 2995 2994 2994 2995 2996 2997 2998 2999 2999 3000 3000 3002 3003 3004 3003 3003 3002 3000
2975 2976 2978 2980 2982 2980 2978 2979 2980 2982 2984 2985 2986 2989 2991 2992 2996 2998 2998 2999 2998 2996 2995 2990 2989 2990 2990 2990 2990 2990 2991 2991 2993 2995 2996 2997 2998 2998 2998 2998 2997 2995 2994 2991
2972 2972 2974 2977 2975 2975 2973 2976 2978 2980 2982 2982 2983 2985 2986 2987 2991 2993 2992 2995 2994 2992 2989 2986 2985 2985 2985 2987 2988 2989 2989 2990 2990 2992 2993 2993 2993 2992 2992 2990 2989 2987 2985 2982
2970 2971 2970 2970 2970 2972 2974 2974 2976 2977 2979 2980 2981 2982 2984 2986 2988 2988 2989 2989 2987 2984 2981 2982 2982 2982 2983 2983 2984 2986 2988 2987 2987 2989 2989 2988 2987 2986 2985 2984 2982 2979 2975 2972
2967 2966 2966 2967 2968 2971 2972 2973 2973 2973 2975 2977 2978 2979 2980 2982 2982 2983 2982 2982 2980 2980 2978 2979 2980 2980 2981 2982 2984 2985 2985 2984 2984 2984 2984 2982 2981 2979 2977 2974 2972 2968 2964 2960
2963 2964 2966 2965 2966 2968 2969 2969 2970 2970 2971 2974 2976 2975 2975 2977 2978 2978 2976 2974 2977 2977 2978 2977 2978 2978 2978 2978 2980 2981 2980 2979 2978 2977 2975 2973 2972 2969 2965 2962 2960 2956 2953 2948
Wind_Speed
10 11 11 11 11 11 12 13 12 14 12 10 7 9 9 10 6 2 0 1 3 4 2 2 3 3 4 6 4 2 3 4 7 11 10 12 14 12 13 4 4 5 2 6
16 10 10 11 10 9 10 9 9 10 10 7 8 6 7 4 3 4 4 2 5 4 3 0 2 2 2 5 5 3 3 3 5 2 7 12 15 17 16 15 10 9 4 5
14 15 11 10 11 9 7 7 6 7 7 7 7 5 4 3 2 1 2 4 3 3 4 6 1 5 4 6 6 6 5 6 6 4 2 4 10 18 19 20 11 11 20 13
15 14 13 11 11 11 7 5 3 4 5 5 5 5 3 2 1 1 1 2 2 2 3 4 6 5 7 6 7 7 7 8 10 12 14 15 16 16 17 21 22 19 15 18
18 16 14 13 10 11 10 5 4 3 3 3 2 3 2 1 2 2 2 2 2 3 5 4 5 3 5 8 7 9 10 8 9 13 15 17 21 22 25 27 27 33 33 33
19 18 16 14 11 11 10 10 8 6 5 5 4 3 3 3 3 1 3 4 4 5 6 6 7 7 8 9 9 9 9 8 6 5 8 10 17 22 27 30 31 30 32 26
21 20 18 17 14 12 12 12 10 9 8 7 6 6 6 5 4 5 6 7 7 6 6 8 9 9 11 13 14 13 13 10 7 7 8 5 9 9 10 12 15 15 14 14
23 22 20 19 17 16 14 12 13 12 12 10 9 8 7 7 6 6 7 9 10 10 10 8 7 9 11 14 17 18 16 15 8 5 6 17 20 19 16 17 18 15 14 15
26 25 24 22 20 19 18 16 15 15 14 15 13 11 11 9 9 10 9 10 10 11 11 9 6 5 4 5 4 8 12 16 12 8 4 5 6 6 6 8 15 9 8 8
28 28 28 27 24 23 22 19 18 17 16 17 16 16 13 13 13 13 12 11 12 12 13 12 11 10 10 6 6 7 11 13 16 13 8 10 15 14 11 5 6 5 4 4
28 28 28 29 28 26 25 23 21 20 20 19 17 17 16 15 14 14 13 12 14 13 14 10 11 11 11 11 12 9 8 7 9 11 9 8 8 9 9 8 8 7 6 5
26 25 25 25 26 25 27 24 23 23 22 19 20 22 19 17 19 18 18 17 12 10 10 10 8 10 10 11 7 13 12 15 6 11 5 7 8 10 11 13 12 11 12 12
29 26 25 24 25 24 25 24 25 24 24 24 25 25 24 24 23 23 19 17 18 19 19 19 18 17 18 18 19 20 20 18 21 20 17 17 16 16 18 15 16 17 19 22
34 30 29 28 27 25 25 24 25 25 25 26 26 22 21 20 20 22 24 23 22 22 22 23 25 25 19 24 25 25 22 23 25 27 24 24 24 22 21 21 20 23 25 27
39 38 32 27 27 27 26 25 25 25 23 20 17 14 15 16 23 21 18 18 19 22 24 26 27 27 26 31 32 37 29 29 32 33 28 29 28 25 25 24 25 24 25 26
28 25 23 24 27 30 28 30 32 29 25 27 31 32 30 28 29 31 31 30 30 30 31 31 31 32 26 22 31 29 24 21 22 23 22 23 23 22 23 22 21 23 26 26
32 31 32 29 27 34 35 33 26 22 22 25 27 28 28 28 30 30 30 29 28 28 29 33 33 33 28 35 42 33 32 29 27 27 27 26 26 24 22 23 26 26 24 25
31 32 34 35 32 33 37 40 33 32 30 27 16 23 24 19 16 18 22 26 28 31 33 37 33 30 32 32 38 33 28 27 23 22 25 25 24 24 26 25 22 21 21 20
25 29 30 29 30 39 39 36 31 33 31 22 25 31 23 21 23 25 24 25 24 27 29 30 28 32 29 31 27 27 25 22 22 21 20 20 22 24 24 21 20 20 21 21
23 25 27 31 36 36 32 25 21 21 26 29 33 30 26 19 18 21 23 19 19 13 21 22 29 40 36 35 32 30 29 27 24 22 21 21 21 20 18 18 19 19 17 16
21 20 25 27 27 27 24 17 15 15 16 23 34 32 28 26 23 21 14 9 8 8 13 16 11 30 26 22 20 20 23 25 24 21 17 16 18 19 17 13 11 12 15 18
23 22 22 18 19 12 12 13 13 12 15 12 14 19 23 25 22 20 12 13 8 8 9 9 10 14 13 14 15 16 17 16 12 12 11 8 6 7 9 11 14 18 23 27
22 21 20 12 11 11 8 11 9 10 13 13 15 16 18 19 20 14 9 9 9 6 7 7 12 16 15 13 13 12 11 9 8 6 6 6 8 10 13 15 17 19 22 25
17 13 11 9 7 8 14 14 9 14 10 9 10 12 12 14 14 9 6 9 6 6 7 8 8 8 8 8 7 7 7 8 7 7 6 7 10 13 16 19 22 25 28 30
12 9 8 12 11 8 5 7 11 11 12 10 10 12 12 11 7 8 8 6 7 8 10 9 8 7 7 7 7 7 7 6 6 7 10 13 17 21 24 26 29 30 32 34
9 9 7 6 6 9 10 10 9 7 11 13 13 11 7 9 7 8 9 7 8 6 8 10 9 8 7 6 6 7 8 10 12 14 17 20 23 26 28 29 32 33 35 37
8 5 9 9 9 9 11 12 13 12 15 17 10 8 8 6 7 10 13 20 9 9 8 10 8 8 7 8 10 13 16 19 20 21 24 26 28 31 34 36 35 36 37 38
Wind_Direction
318 325 334 341 348 355 356 10 11 18 21 37 58 95 114 132 137 126 148 185 159 140 83 77 57 132 149 166 153 124 85 113 155 191 202 207 210 210 208 202 219 212 197 259
309 315 319 328 336 345 353 3 6 18 26 38 59 81 106 111 135 140 128 134 178 196 199 154 231 209 179 184 176 176 177 158 128 172 238 231 227 227 228 232 243 227 199 248
299 306 309 314 320 334 345 346 353 5 22 35 43 50 64 103 110 144 154 151 161 188 222 215 256 232 234 241 250 231 211 221 216 215 219 221 226 240 238 232 230 237 234 248
289 292 300 305 311 316 323 339 326 348 8 19 45 45 51 21 74 76 146 153 189 217 207 235 240 253 238 244 235 237 245 241 237 245 252 253 251 251 248 245 248 243 266 258
283 285 286 296 303 305 305 301 296 296 299 327 350 7 23 38 346 318 241 244 218 206 221 242 249 255 246 242 243 243 246 262 257 260 260 259 259 253 250 251 247 251 251 259
275 279 282 285 291 290 287 289 283 270 263 267 271 289 318 325 317 294 286 262 261 258 245 245 256 264 262 254 250 250 243 251 277 274 252 268 274 260 248 253 257 261 257 266
270 271 274 277 280 280 284 282 276 271 267 258 255 255 275 282 295 301 300 296 289 276 265 271 268 262 263 260 251 246 251 243 251 274 280 245 259 249 246 255 262 264 260 258
267 268 267 269 270 272 272 270 267 258 254 253 256 256 246 259 266 278 290 297 291 283 278 281 281 277 268 258 255 248 239 240 225 216 233 281 276 268 267 268 267 260 257 263
266 266 265 265 269 268 266 264 264 260 256 253 247 246 260 257 268 270 274 274 274 272 267 269 255 239 239 252 242 230 230 229 218 216 216 234 257 272 279 294 281 264 251 240
260 262 265 267 266 265 264 261 257 256 251 252 251 251 250 259 265 270 277 274 269 264 259 247 252 250 241 240 226 218 217 224 221 227 243 266 254 260 273 253 283 279 263 227
259 257 256 260 263 261 260 258 255 252 249 245 242 245 250 253 253 264 269 266 262 248 241 238 244 241 243 241 241 254 232 218 211 202 218 262 255 254 242 265 282 275 261 236
261 262 262 260 257 253 256 254 252 251 248 245 245 247 249 246 261 260 263 257 253 240 233 229 225 236 249 257 256 253 244 237 236 223 236 259 278 278 277 279 274 260 248 250
252 256 264 263 264 261 260 257 254 254 254 255 253 250 252 255 259 262 249 254 256 255 254 253 249 245 253 255 268 263 261 258 254 268 272 271 276 283 279 272 268 265 262 270
253 251 256 254 258 261 259 254 253 254 257 257 254 252 254 250 250 256 261 260 257 257 254 253 252 253 262 258 260 260 262 264 268 272 274 279 280 281 272 268 269 276 274 275
252 251 254 250 253 256 256 258 252 249 247 256 258 255 254 256 254 250 246 247 253 258 256 255 257 261 262 266 266 262 266 273 271 276 278 276 278 275 273 268 275 270 270 275
257 262 261 262 252 258 261 258 243 249 252 259 263 266 265 259 256 256 258 258 258 256 257 259 262 263 258 262 263 276 277 274 273 273 274 272 271 273 273 265 261 271 275 274
243 242 246 248 247 250 260 254 263 256 252 250 261 272 266 258 255 254 254 254 254 252 253 256 260 264 258 259 263 273 278 280 276 277 277 272 273 272 262 263 278 278 273 270
240 242 240 245 243 255 255 263 260 257 259 255 246 253 253 249 244 244 246 246 248 253 254 257 260 260 258 257 276 281 280 280 274 268 270 271 267 262 267 271 271 269 269 273
233 235 233 234 237 246 251 258 256 253 247 237 238 241 251 250 243 241 243 244 241 246 248 253 259 259 252 267 270 276 281 275 276 269 263 264 268 268 266 265 270 271 272 273
223 226 226 231 240 243 250 251 239 229 231 234 241 245 241 246 239 235 235 239 235 241 252 256 253 257 267 268 273 273 271 268 267 260 255 259 262 261 263 270 271 266 261 266
229 231 229 229 232 235 233 219 213 213 224 235 239 242 247 245 245 239 230 229 224 235 238 226 246 260 277 276 269 261 259 259 262 262 265 258 263 267 267 259 261 273 279 282
214 217 220 209 195 204 204 204 210 218 220 233 233 232 233 234 234 228 226 226 222 236 229 217 254 275 268 263 258 253 255 257 250 251 252 249 243 248 257 269 277 281 286 293
205 204 184 189 204 214 205 209 202 205 217 233 231 226 221 223 220 212 212 217 226 226 227 236 260 268 263 259 253 249 233 211 202 209 220 237 253 266 276 283 293 300 304 309
204 203 209 213 216 222 223 224 224 226 222 220 217 213 208 203 196 201 208 217 217 230 230 239 241 229 250 244 221 208 200 198 204 221 238 266 287 292 297 302 305 305 306 307
190 188 203 219 222 223 229 220 224 224 226 223 213 212 205 193 187 206 209 205 226 223 231 230 199 210 224 214 209 202 196 214 241 270 287 292 294 296 297 299 299 299 300 301
198 205 210 203 213 231 242 248 249 236 226 220 210 202 204 210 210 207 206 208 225 242 213 194 211 200 210 222 232 241 257 272 282 288 290 291 294 294 296 297 298 299 298 299
218 223 236 263 272 269 265 259 256 245 230 216 203 209 196 208 218 218 225 229 231 201 215 222 231 254 263 275 286 292 294 294 294 292 291 293 298 299 296 296 299 298 299 299